Stündliche Wetter Kytaihorodka

Heute, 18 Mai, Dienstag

Zeit Temperatur Niederschläge Wind Luftdruck Luftfeuchtigkeit
00:00 +16°C° 0.1 mm 3 m/S 742 mmHg 90%
01:00 +14°C° 0.1 mm 3 m/S 741 mmHg 90%
02:00 +14°C° 0 mm 3 m/S 741 mmHg 92%
03:00 +14°C° 0 mm 3 m/S 741 mmHg 93%
04:00 +13°C° 0 mm 3 m/S 741 mmHg 94%
05:00 +13°C° 0 mm 3 m/S 742 mmHg 94%
06:00 +15°C° 0 mm 4 m/S 742 mmHg 88%
07:00 +17°C° 0 mm 4 m/S 742 mmHg 81%
08:00 +17°C° 0 mm 5 m/S 742 mmHg 74%
09:00 +19°C° 0.1 mm 5 m/S 741 mmHg 70%
10:00 +20°C° 0.1 mm 6 m/S 741 mmHg 65%
11:00 +21°C° 0.1 mm 6 m/S 741 mmHg 60%
12:00 +21°C° 0.6 mm 6 m/S 741 mmHg 62%
13:00 +20°C° 0.6 mm 7 m/S 741 mmHg 64%
14:00 +20°C° 0.6 mm 7 m/S 741 mmHg 66%
15:00 +18°C° 0.4 mm 7 m/S 741 mmHg 72%
16:00 +17°C° 0.4 mm 6 m/S 740 mmHg 78%
17:00 +16°C° 0.4 mm 5 m/S 740 mmHg 84%
18:00 +16°C° 0.2 mm 5 m/S 740 mmHg 85%
19:00 +15°C° 0.2 mm 5 m/S 740 mmHg 86%
20:00 +15°C° 0.2 mm 6 m/S 740 mmHg 87%
21:00 +14°C° 0 mm 5 m/S 740 mmHg 88%
22:00 +13°C° 0 mm 4 m/S 740 mmHg 90%
23:00 +12°C° 0 mm 4 m/S 740 mmHg 91%

Morgen, 19 Mai, Mittwoch

Zeit Temperatur Niederschläge Wind Luftdruck Luftfeuchtigkeit
00:00 +12°C° 0 mm 4 m/S 740 mmHg 92%
01:00 +12°C° 0 mm 4 m/S 740 mmHg 93%
02:00 +12°C° 0 mm 4 m/S 740 mmHg 94%
03:00 +12°C° 0.1 mm 4 m/S 740 mmHg 93%
04:00 +12°C° 0.1 mm 4 m/S 740 mmHg 93%
05:00 +11°C° 0.1 mm 4 m/S 740 mmHg 93%
06:00 +13°C° 0 mm 4 m/S 740 mmHg 85%
07:00 +14°C° 0 mm 5 m/S 740 mmHg 78%
08:00 +15°C° 0 mm 5 m/S 740 mmHg 71%
09:00 +16°C° 0.2 mm 5 m/S 741 mmHg 66%
10:00 +17°C° 0.2 mm 6 m/S 741 mmHg 61%
11:00 +19°C° 0.2 mm 6 m/S 741 mmHg 56%
12:00 +18°C° 0.4 mm 7 m/S 741 mmHg 61%
13:00 +17°C° 0.4 mm 8 m/S 741 mmHg 65%
14:00 +17°C° 0.4 mm 8 m/S 741 mmHg 69%
15:00 +16°C° 0.2 mm 7 m/S 741 mmHg 73%
16:00 +15°C° 0.2 mm 7 m/S 741 mmHg 78%
17:00 +15°C° 0.2 mm 6 m/S 741 mmHg 83%
18:00 +14°C° 0.2 mm 6 m/S 741 mmHg 85%
19:00 +14°C° 0.2 mm 7 m/S 741 mmHg 86%
20:00 +12°C° 0.2 mm 7 m/S 741 mmHg 88%
21:00 +12°C° 0.1 mm 7 m/S 741 mmHg 89%
22:00 +11°C° 0.1 mm 7 m/S 742 mmHg 90%
23:00 +11°C° 0.1 mm 7 m/S 742 mmHg 91%

übermorgen, 20 Mai, Donnerstag

Zeit Temperatur Niederschläge Wind Luftdruck Luftfeuchtigkeit
00:00 +11°C° 0 mm 7 m/S 742 mmHg 90%
01:00 +11°C° 0 mm 7 m/S 743 mmHg 89%
02:00 +11°C° 0 mm 6 m/S 743 mmHg 89%
03:00 +10°C° 0 mm 6 m/S 743 mmHg 89%
04:00 +10°C° 0 mm 5 m/S 744 mmHg 90%
05:00 +10°C° 0 mm 5 m/S 744 mmHg 91%
06:00 +12°C° 0 mm 5 m/S 744 mmHg 83%
07:00 +14°C° 0 mm 5 m/S 745 mmHg 76%
08:00 +15°C° 0 mm 5 m/S 745 mmHg 68%
09:00 +16°C° 0 mm 5 m/S 745 mmHg 62%
10:00 +19°C° 0 mm 5 m/S 745 mmHg 56%
11:00 +20°C° 0 mm 5 m/S 746 mmHg 51%
12:00 +21°C° 0 mm 4 m/S 746 mmHg 51%
13:00 +21°C° 0 mm 4 m/S 746 mmHg 51%
14:00 +21°C° 0 mm 4 m/S 745 mmHg 51%
15:00 +21°C° 0.1 mm 3 m/S 745 mmHg 54%
16:00 +21°C° 0.1 mm 2 m/S 745 mmHg 56%
17:00 +21°C° 0.1 mm 1 m/S 745 mmHg 58%
18:00 +19°C° 0.2 mm 2 m/S 745 mmHg 66%
19:00 +17°C° 0.2 mm 2 m/S 746 mmHg 74%
20:00 +15°C° 0.2 mm 2 m/S 746 mmHg 82%
21:00 +14°C° 0 mm 3 m/S 746 mmHg 83%
22:00 +13°C° 0 mm 3 m/S 745 mmHg 84%
23:00 +13°C° 0 mm 3 m/S 745 mmHg 85%

21 Mai, Freitag

Zeit Temperatur Niederschläge Wind Luftdruck Luftfeuchtigkeit
00:00 +13°C° 0 mm 3 m/S 745 mmHg 84%
01:00 +12°C° 0 mm 3 m/S 745 mmHg 84%
02:00 +12°C° 0 mm 3 m/S 745 mmHg 83%
03:00 +12°C° 0.1 mm 3 m/S 745 mmHg 84%
04:00 +12°C° 0.1 mm 4 m/S 745 mmHg 84%
05:00 +12°C° 0.1 mm 4 m/S 744 mmHg 85%
06:00 +14°C° 0 mm 4 m/S 744 mmHg 82%
07:00 +15°C° 0 mm 4 m/S 744 mmHg 79%
08:00 +17°C° 0 mm 4 m/S 744 mmHg 76%
09:00 +18°C° 0 mm 4 m/S 744 mmHg 73%
10:00 +19°C° 0 mm 3 m/S 744 mmHg 69%
11:00 +20°C° 0 mm 3 m/S 745 mmHg 66%
12:00 +21°C° 0 mm 3 m/S 744 mmHg 62%
13:00 +23°C° 0 mm 2 m/S 744 mmHg 58%
14:00 +24°C° 0 mm 2 m/S 744 mmHg 55%
15:00 +24°C° 0 mm 1 m/S 744 mmHg 55%
16:00 +24°C° 0 mm 1 m/S 744 mmHg 55%
17:00 +24°C° 0 mm 1 m/S 744 mmHg 55%
18:00 +22°C° 0 mm 1 m/S 744 mmHg 60%
19:00 +21°C° 0 mm 1 m/S 744 mmHg 65%
20:00 +20°C° 0 mm 1 m/S 744 mmHg 70%
21:00 +18°C° 0 mm 2 m/S 744 mmHg 75%
22:00 +17°C° 0 mm 3 m/S 744 mmHg 80%
23:00 +15°C° 0 mm 4 m/S 744 mmHg 85%

22 Mai, Samstag

Zeit Temperatur Niederschläge Wind Luftdruck Luftfeuchtigkeit
00:00 +15°C° 0 mm 4 m/S 744 mmHg 88%
01:00 +14°C° 0 mm 4 m/S 744 mmHg 92%
02:00 +14°C° 0 mm 5 m/S 744 mmHg 95%
03:00 +14°C° 0 mm 5 m/S 744 mmHg 95%
04:00 +14°C° 0 mm 5 m/S 744 mmHg 94%
05:00 +14°C° 0 mm 6 m/S 744 mmHg 94%
06:00 +15°C° 0 mm 6 m/S 745 mmHg 89%
07:00 +17°C° 0 mm 6 m/S 745 mmHg 85%
08:00 +19°C° 0 mm 6 m/S 745 mmHg 80%
09:00 +20°C° 0 mm 5 m/S 745 mmHg 75%
10:00 +22°C° 0 mm 5 m/S 745 mmHg 69%
11:00 +23°C° 0 mm 5 m/S 746 mmHg 64%
12:00 +25°C° 0 mm 5 m/S 746 mmHg 60%
13:00 +26°C° 0 mm 4 m/S 745 mmHg 56%
14:00 +27°C° 0 mm 4 m/S 745 mmHg 52%
15:00 +27°C° 0 mm 4 m/S 745 mmHg 55%
16:00 +27°C° 0 mm 4 m/S 745 mmHg 57%
17:00 +26°C° 0 mm 4 m/S 745 mmHg 59%
18:00 +23°C° 0 mm 5 m/S 746 mmHg 67%
19:00 +21°C° 0 mm 5 m/S 746 mmHg 75%
20:00 +19°C° 0 mm 6 m/S 746 mmHg 83%
21:00 +17°C° 0 mm 5 m/S 746 mmHg 86%
22:00 +17°C° 0 mm 5 m/S 746 mmHg 88%
23:00 +17°C° 0 mm 4 m/S 747 mmHg 91%

23 Mai, Sonntag

Zeit Temperatur Niederschläge Wind Luftdruck Luftfeuchtigkeit
00:00 +17°C° 0 mm 4 m/S 746 mmHg 92%
01:00 +17°C° 0 mm 4 m/S 746 mmHg 93%
02:00 +17°C° 0 mm 4 m/S 746 mmHg 94%
03:00 +17°C° 0 mm 4 m/S 746 mmHg 93%
04:00 +17°C° 0 mm 4 m/S 746 mmHg 93%
05:00 +17°C° 0 mm 4 m/S 746 mmHg 93%
06:00 +18°C° 0 mm 4 m/S 746 mmHg 86%
07:00 +20°C° 0 mm 4 m/S 746 mmHg 80%
08:00 +22°C° 0 mm 4 m/S 747 mmHg 73%
09:00 +25°C° 0 mm 4 m/S 747 mmHg 68%
10:00 +26°C° 0 mm 3 m/S 747 mmHg 63%
11:00 +28°C° 0 mm 3 m/S 747 mmHg 58%
12:00 +28°C° 0 mm 3 m/S 746 mmHg 56%
13:00 +29°C° 0 mm 4 m/S 746 mmHg 53%
14:00 +29°C° 0 mm 4 m/S 746 mmHg 51%
15:00 +29°C° 0 mm 4 m/S 746 mmHg 52%
16:00 +28°C° 0 mm 4 m/S 746 mmHg 53%
17:00 +28°C° 0 mm 4 m/S 746 mmHg 54%
18:00 +26°C° 0 mm 4 m/S 746 mmHg 60%
19:00 +23°C° 0 mm 4 m/S 747 mmHg 65%
20:00 +21°C° 0 mm 4 m/S 747 mmHg 71%
21:00 +20°C° 0 mm 4 m/S 747 mmHg 73%
22:00 +19°C° 0 mm 4 m/S 747 mmHg 75%
23:00 +18°C° 0 mm 3 m/S 747 mmHg 77%
Mehr zeigen

Wir brauchen deine Erlaubnis

Meteoprog und unser Service Anbieter werden persönliche Daten aufbewahren, so wie Cookies, Geräte Bezeichnung oder ähnliche Technologien von deinem Gerät und Prozess, so wie Persönliche Daten Inhalte und Werbungen, genauso wie social Media und den Verkehr zu analysieren.

  • Aufbewahrung und/oder Zugang zu deiner Geräte Informationen.

    Cookies, Geräte Bezeichnung oder andere Informationen, können aufbewahrt oder Zugang zu deinem Gerät erhalten, für den Grund, der oben angegeben wird.

  • Personalisierte Werbung und Inhalte, Messungen, Einblick in das Publikum und Produkt Entwicklung.

    Werbungen und Inhalte können personalisiert werden, basierend auf ein Profil. Mehr Daten können besser personalisierte Werbungen und Inhalte hinzufügen. Werbung und Inhalte können gezeigt und gemessen werden. Einblicke über das Publikum, welche die Werbung gesehen haben und den Inhalt, können abgeleitet werden. So wie Daten können genutzt werden, um es zu verbessern oder die Benutzer Erfahrung zu verbessern das System und die Software.

Wenn du “Ich stimme zu” klickst, erlaubst du uns, die Cookies zu benutzen die Geräte Bezeichnung, den Web oder ähnliche Technologien zu benutzen. Deine Settings, können in deinem Gerät bei deinem Browser geändert werden.

Für den bestimmten Zweck, berechtigten Interessen beruhen darauf, mehr als auf den Inhalt. Du kannst mehr darüber in unseren Privaten und Cookie Politik lesen.